This is the latest recevied weather packets stored in our database for station/object KF4PPJ. If no packets are shown the sender has not sent any weather packets the latest 10 day(s).
| Time | Temp. | Humidity | Pressure | Rain* | Wind** | Luminosity | Snow |
|---|---|---|---|---|---|---|---|
| 1778018904 | 16.67° C | 71% | 1019.1 hPa | 0 mm | - | 311 W/m² | - |
| 1778018600 | 16.11° C | 72% | 1019.4 hPa | 0 mm | - | 290 W/m² | - |
| 1778018299 | 16.11° C | 74% | 1019.2 hPa | 0 mm | - | 268 W/m² | - |
| 1778017996 | 16.11° C | 72% | 1019.5 hPa | 0 mm | - | 262 W/m² | - |
| 1778017694 | 16.11° C | 72% | 1019.2 hPa | 0 mm | - | 264 W/m² | - |
| 1778017391 | 16.11° C | 72% | 1019.3 hPa | 0 mm | - | 270 W/m² | - |
| 1778017088 | 16.11° C | 72% | 1019.3 hPa | 0 mm | - | 291 W/m² | - |
| 1778016786 | 16.11° C | 72% | 1019.4 hPa | 0 mm | - | 304 W/m² | - |
| 1778016481 | 16.11° C | 72% | 1019.4 hPa | 0 mm | - | 318 W/m² | - |
| 1778016179 | 16.11° C | 73% | 1019.4 hPa | 0 mm | - | 301 W/m² | - |
| 1778015875 | 15.56° C | 73% | 1019 hPa | 0 mm | - | 284 W/m² | - |
| 1778015573 | 15.56° C | 74% | 1019.3 hPa | 0 mm | - | 277 W/m² | - |
| 1778015269 | 15.56° C | 74% | 1019.4 hPa | 0 mm | - | 271 W/m² | - |
| 1778014966 | 15.56° C | 74% | 1019.5 hPa | 0 mm | - | 283 W/m² | - |
| 1778014663 | 15.56° C | 74% | 1019.5 hPa | 0 mm | - | 290 W/m² | - |
| 1778014362 | 15.56° C | 74% | 1019.4 hPa | 0 mm | - | 295 W/m² | - |
| 1778014058 | 15.56° C | 75% | 1019.6 hPa | 0 mm | - | 266 W/m² | - |
| 1778013756 | 15.56° C | 74% | 1019.6 hPa | 0 mm | - | 249 W/m² | - |
| 1778013453 | 15.56° C | 74% | 1019.5 hPa | 0 mm | - | 245 W/m² | - |
| 1778013150 | 15.56° C | 75% | 1019.3 hPa | 0 mm | - | 243 W/m² | - |
| 1778012845 | 15° C | 76% | 1019.5 hPa | 0 mm | - | 247 W/m² | - |
| 1778012542 | 15° C | 76% | 1019.5 hPa | 0 mm | - | 238 W/m² | - |
| 1778012238 | 15° C | 76% | 1019.3 hPa | 0 mm | - | 234 W/m² | - |
| 1778011936 | 15° C | 76% | 1019.5 hPa | 0 mm | - | 219 W/m² | - |
| 1778011634 | 15° C | 76% | 1019.5 hPa | 0 mm | - | 216 W/m² | - |
* Rain latest hour (hover to see other rain measurements)
** Current wind speed in m/s (hover to see current wind gust speed)